Latest Coastal Weather Observations for Middle Percy Island

IDQ60701

Issued at 8:31 am EST Wednesday 2 September 2015 (issued every 10 minutes, with the page automatically refreshed every 10 minutes)

About coastal observations | Map of coastal stations | Coastal observations for QLD | Marine services | Other Formats
Station Details ID: 200001 Name: MIDDLE PERCY ISLAND Lat: -21.66 Lon: 150.27 Height: 208.7 m
Data from the previous 72 hours. | See also: Recent months at Middle Percy Island
Date/Time
EST
Temp

°C
Wind Pressure Rain
since 9am
mm
Weather Cloud Vis
km
Sea
Height
m
Swell
Dir
 
Speed
knots
Gust
knots
hPa Trend Height
m
Period
s
Dir
02/08:30am 20.7 - 10 12 1020.7 - - - - - - - - -
02/08:00am 20.6 - - - 1019.3 - - - - - - - - -
02/07:30am 20.5 - - - 1019.8 - - - - - - - - -
02/07:00am 20.1 - - - 1018.6 - - - - - - - - -
02/06:30am 19.6 - - - 1019.3 - - - - - - - - -
02/06:00am 19.7 - - - 1018.2 - - - - - - - - -
02/05:30am 19.5 - - - 1018.4 - - - - - - - - -
02/05:00am 19.4 - - - 1017.1 - - - - - - - - -
02/04:30am 19.3 - - - 1017.8 - - - - - - - - -
02/04:00am 19.4 - - - 1017.1 - - - - - - - - -
02/03:30am 19.3 - - - 1017.9 - - - - - - - - -
02/03:00am 19.3 - - - 1017.2 - 0.0 - - - - - - -
02/02:30am 19.4 - - - 1018.1 - - - - - - - - -
02/02:00am 19.3 - - - 1017.4 - - - - - - - - -
02/01:30am 19.4 - - - 1018.1 - - - - - - - - -
02/01:00am 19.3 - - - 1017.3 - - - - - - - - -
02/12:30am 19.2 - - - 1018.1 - - - - - - - - -
02/12:00am 19.3 - - - 1017.2 - - - - - - - - -
 
Date/Time
EST
Temp

°C
Wind Pressure Rain
since 9am
mm
Weather Cloud Vis
km
Sea
Height
m
Swell
Dir
 
Speed
knots
Gust
knots
hPa Trend Height
m
Period
s
Dir
01/11:30pm 19.2 - - - 1018.0 - - - - - - - - -
01/11:00pm 19.2 - - - 1017.2 - - - - - - - - -
01/10:30pm 19.0 - - - 1018.1 - - - - - - - - -
01/10:00pm 19.1 - - - 1017.2 - - - - - - - - -
01/09:30pm 18.9 - - - 1018.1 - - - - - - - - -
01/09:00pm 19.1 - - - 1017.0 - 0.0 - - - - - - -
01/08:30pm 19.1 - - - 1017.5 - - - - - - - - -
01/08:00pm 18.9 - - - 1016.6 - - - - - - - - -
01/07:30pm 18.9 - - - 1017.2 - - - - - - - - -
01/07:00pm 18.8 - - - 1016.1 - - - - - - - - -
01/06:30pm 18.8 - - - 1016.6 - - - - - - - - -
01/06:00pm 18.9 - - - 1015.6 - - - - - - - - -
01/05:30pm 19.2 - - - 1016.2 - - - - - - - - -
01/05:00pm 19.7 - - - 1015.1 - - - - - - - - -
01/04:30pm 20.1 - - - 1016.0 - - - - - - - - -
01/04:00pm 20.7 - - - 1014.9 - - - - - - - - -
01/03:30pm 20.8 - - - 1016.0 - - - - - - - - -
01/03:00pm 20.9 - - - 1015.4 - 0.2 Recent precip. - - - - - -
01/02:30pm 22.3 - - - 1016.7 - - - - - - - - -
01/02:00pm 21.7 - - - 1016.3 - - - - - - - - -
01/01:30pm 19.9 - - - 1017.6 - - - - - - - - -
01/01:00pm 19.8 - - - 1017.2 - - - - - - - - -
01/12:30pm 19.7 - - - 1018.4 - - - - - - - - -
01/12:00pm 19.7 - - - 1017.9 - - - - - - - - -
01/11:30am 19.7 - - - 1019.2 - - - - - - - - -
01/11:00am 19.8 - - - 1018.8 - - - - - - - - -
01/10:30am 20.1 - - - 1019.9 - - - - - - - - -
01/10:00am 21.2 - - - 1019.4 - - - - - - - - -
01/09:30am 21.0 - - - 1020.2 - - - - - - - - -
01/09:00am 21.3 - - - 1019.5 - 0.0 - - - - - - -
01/08:30am 19.7 - - - 1019.9 - - - - - - - - -
01/08:00am 19.6 - - - 1019.0 - - - - - - - - -
01/07:30am 19.7 - - - 1019.2 - - - - - - - - -
01/07:00am 18.9 - - - 1018.3 - - - - - - - - -
01/06:30am 17.8 - - - 1018.5 - - - - - - - - -
01/06:00am 17.6 - - - 1017.4 - - - - - - - - -
01/05:30am 17.2 - - - 1017.6 - - - - - - - - -
01/05:00am 17.4 - - - 1016.7 - - - - - - - - -
01/04:30am 17.5 - - - 1017.0 - - - - - - - - -
01/04:00am 17.4 - - - 1016.2 - - - - - - - - -
01/03:30am 17.6 - - - 1016.9 - - - - - - - - -
01/03:00am 17.8 - - - 1016.4 - 0.0 - - - - - - -
01/02:30am 18.0 - - - 1017.1 - - - - - - - - -
01/02:00am 18.0 - - - 1016.7 - - - - - - - - -
01/01:30am 17.7 - - - 1017.3 - - - - - - - - -
01/01:00am 17.5 - - - 1016.9 - - - - - - - - -
01/12:30am 17.6 - - - 1017.8 - - - - - - - - -
01/12:00am 17.7 - - - 1017.2 - - - - - - - - -
 
Date/Time
EST
Temp

°C
Wind Pressure Rain
since 9am
mm
Weather Cloud Vis
km
Sea
Height
m
Swell
Dir
 
Speed
knots
Gust
knots
hPa Trend Height
m
Period
s
Dir
31/11:30pm 17.8 - - - 1017.8 - - - - - - - - -
31/11:00pm 17.6 - - - 1017.1 - - - - - - - - -
31/10:30pm 17.5 - - - 1017.7 - - - - - - - - -
31/10:00pm 17.2 - - - 1017.2 - - - - - - - - -
31/09:30pm 17.5 - - - 1017.9 - - - - - - - - -
31/09:00pm 17.6 - - - 1017.3 - 0.0 - - - - - - -
31/08:30pm 17.7 - - - 1017.6 - - - - - - - - -
31/08:00pm 17.7 - - - 1016.8 - - - - - - - - -
31/07:30pm 17.9 - - - 1017.0 - - - - - - - - -
31/07:00pm 17.9 - - - 1015.8 - - - - - - - - -
31/06:30pm 17.6 - - - 1016.1 - - - - - - - - -
31/06:00pm 17.9 - - - 1015.1 - - - - - - - - -
31/05:30pm 18.3 - - - 1015.7 - - - - - - - - -
31/05:00pm 19.1 - - - 1014.9 - - - - - - - - -
31/04:30pm 19.9 - - - 1015.6 - - - - - - - - -
31/04:00pm 20.2 - - - 1014.7 - - - - - - - - -
31/03:30pm 20.6 - - - 1015.4 - - - - - - - - -
31/03:00pm 20.8 - - - 1015.1 - 0.0 - - - - - - -
31/02:30pm 20.8 - - - 1016.2 - - - - - - - - -
31/02:00pm 21.2 - - - 1015.8 - - - - - - - - -
31/01:30pm 20.6 - - - 1016.9 - - - - - - - - -
31/01:00pm 21.3 - - - 1016.5 - - - - - - - - -
31/12:30pm 21.0 - - - 1017.3 - - - - - - - - -
31/12:00pm 21.5 - - - 1017.1 - - - - - - - - -
31/11:30am 21.4 - - - 1018.1 - - - - - - - - -
31/11:00am 21.3 - - - 1018.0 - - - - - - - - -
31/10:30am 20.8 - - - 1019.1 - - - - - - - - -
31/10:00am 20.6 - - - 1018.8 - - - - - - - - -
31/09:30am 19.6 - - - 1019.4 - - - - - - - - -
31/09:00am 19.7 - - - 1018.6 - 0.2 - - - - - - -
31/08:30am 19.2 - - - 1018.9 - - - - - - - - -
31/08:00am 18.6 - - - 1017.9 - - - - - - - - -
31/07:30am 18.4 - - - 1018.2 - - - - - - - - -
31/07:00am 18.0 - - - 1017.3 - - - - - - - - -
31/06:30am 17.6 - - - 1017.5 - - - - - - - - -
31/06:00am 17.1 - - - 1016.6 - - - - - - - - -
31/05:30am 17.2 - - - 1016.9 - - - - - - - - -
31/05:00am 17.2 - - - 1016.1 - - - - - - - - -
31/04:30am 17.2 - - - 1016.7 - - - - - - - - -
31/04:00am 18.2 - - - 1016.2 - - - - - - - - -
31/03:30am 18.2 - - - 1016.8 - - - - - - - - -
31/03:00am 18.1 - - - 1016.3 - 0.0 - - - - - - -
31/02:30am 18.1 - - - 1017.1 - - - - - - - - -
31/02:00am 18.2 - - - 1016.6 - - - - - - - - -
31/01:30am 18.2 - - - 1017.2 - - - - - - - - -
31/01:00am 18.6 - - - 1016.7 - - - - - - - - -
31/12:30am 18.7 - - - 1017.5 - - - - - - - - -
31/12:00am 18.6 - - - 1017.0 - - - - - - - - -
 
Date/Time
EST
Temp

°C
Wind Pressure Rain
since 9am
mm
Weather Cloud Vis
km
Sea
Height
m
Swell
Dir
 
Speed
knots
Gust
knots
hPa Trend Height
m
Period
s
Dir
30/11:30pm 18.7 - - - 1017.7 - - - - - - - - -
30/11:00pm 19.0 - - - 1017.2 - - - - - - - - -
30/10:30pm 19.1 - - - 1017.9 - - - - - - - - -
30/10:00pm 19.1 - - - 1017.3 - - - - - - - - -
30/09:30pm 19.0 - - - 1017.9 - - - - - - - - -
30/09:00pm 18.9 - - - 1017.2 - 0.0 - - - - - - -
30/08:30pm 18.9 - - - 1017.7 - - - - - - - - -
30/08:00pm 18.9 - - - 1016.8 - - - - - - - - -
30/07:30pm 19.0 - - - 1017.0 - - - - - - - - -
30/07:00pm 19.0 - - - 1016.0 - - - - - - - - -
30/06:30pm 18.8 - - - 1016.5 - - - - - - - - -
30/06:00pm 19.0 - - - 1015.3 - - - - - - - - -
30/05:30pm 19.7 - - - 1015.8 - - - - - - - - -
30/05:00pm 20.3 - - - 1015.0 - - - - - - - - -
30/04:30pm 20.0 - - - 1015.6 - - - - - - - - -
30/04:00pm 20.7 - - - 1014.8 - - - - - - - - -
30/03:30pm 20.5 - - - 1015.6 - - - - - - - - -
30/03:00pm 21.0 - - - 1015.0 - 0.0 - - - - - - -
30/02:30pm 21.1 - - - 1016.0 - - - - - - - - -
30/02:00pm 21.4 - - - 1015.7 - - - - - - - - -
30/01:30pm 21.5 - - - 1016.9 - - - - - - - - -
30/01:00pm 20.5 - - - 1016.6 - - - - - - - - -
30/12:30pm 20.7 - - - 1017.4 - - - - - - - - -
30/12:00pm 22.0 - - - 1017.3 - - - - - - - - -
30/11:30am 21.4 - - - 1018.3 - - - - - - - - -
30/11:00am 20.1 - - - 1018.3 - - - - - - - - -
30/10:30am 19.5 - - - 1019.2 - - - - - - - - -
30/10:00am 18.9 - - - 1018.8 - - - - - - - - -
30/09:30am 18.7 - - - 1019.4 - - - - - - - - -
30/09:00am 18.7 - - - 1018.7 - 6.0 Recent precip. - - - - - -

Other Formats:

Comma delimited format used in spreadsheet applications
http://www.bom.gov.au/fwo/IDQ60701/IDQ60701.94372.axf

JavaScript Object Notation format (JSON) in row-major order
http://www.bom.gov.au/fwo/IDQ60701/IDQ60701.94372.json